Tracking 30101 objects as of 13-Dec-2024
HD Live streaming from Space Station
objects crossing your sky now

BRAZILSAT 1

Track BRAZILSAT 1 now!
BRAZILSAT 1 is classified as:


NORAD ID: 15561
Int'l Code: 1985-015B
Perigee: 35,979.6 km
Apogee: 36,012.5 km
Inclination: 14.4 °
Period: 1,446.4 minutes
Semi major axis: 42367 km
RCS: 2.7147 m2 (large)
Launch date: February 8, 1985
Source: Brazil (BRAZ)
Launch site: FRENCH GUIANA (FRGUI)
Your satellite tracking list
Your tracking list is empty




NASA's NSSDC Master Catalog

Two Line Element Set (TLE):
1 15561U 85015B   24347.77031326 -.00000208  00000-0  00000-0 0  9997
2 15561  14.4271 348.9714 0003882 293.9019 243.1261  0.99554466 40853
Source of the keplerian elements: AFSPC